GLO9938 SBCF-SBFZ

Flight info

Callsign GLO9938
Flight time 2h 27m
Altitude FL390
Route PABES UZ88 DOTKU
Aircraft B738/M-S/N

Departure

Time 2026-04-29 12:19
Airport Tancredo Neves International Airport (SBCF)

Arrival

Time 2026-04-29 14:47
Airport Pinto Martins International Airport (SBFZ)
Time Latitude Longitude Altitude Speed Heading
2026-04-29 12:09 -19.63429 -43.96258 2723 ft 0 kts 26°
2026-04-29 12:09 -19.63437 -43.96262 2723 ft 2 kts 26°
2026-04-29 12:10 -19.63454 -43.96271 2723 ft 3 kts 26°
2026-04-29 12:10 -19.63472 -43.96280 2723 ft 3 kts 26°
2026-04-29 12:10 -19.63490 -43.96290 2723 ft 3 kts 26°
2026-04-29 12:10 -19.63498 -43.96294 2723 ft 0 kts 26°
2026-04-29 12:11 -19.63497 -43.96293 2723 ft 1 kts 24°
2026-04-29 12:11 -19.63492 -43.96293 2723 ft 1 kts
2026-04-29 12:11 -19.63487 -43.96293 2723 ft 1 kts 349°
2026-04-29 12:11 -19.63481 -43.96297 2723 ft 1 kts 326°
2026-04-29 12:12 -19.63471 -43.96309 2723 ft 3 kts 308°
2026-04-29 12:12 -19.63453 -43.96335 2723 ft 5 kts 308°
2026-04-29 12:12 -19.63428 -43.96373 2723 ft 7 kts 302°
2026-04-29 12:12 -19.63395 -43.96421 2723 ft 9 kts 310°
2026-04-29 12:13 -19.63350 -43.96477 2723 ft 11 kts 310°
2026-04-29 12:13 -19.63297 -43.96540 2723 ft 11 kts 312°
2026-04-29 12:13 -19.63244 -43.96603 2723 ft 11 kts 310°
2026-04-29 12:13 -19.63240 -43.96671 2723 ft 10 kts 229°
2026-04-29 12:14 -19.63271 -43.96732 2723 ft 9 kts 282°
2026-04-29 12:14 -19.63230 -43.96777 2723 ft 9 kts 320°
2026-04-29 12:14 -19.63181 -43.96820 2723 ft 11 kts 320°
2026-04-29 12:14 -19.63124 -43.96870 2723 ft 13 kts 319°
2026-04-29 12:15 -19.63061 -43.96929 2723 ft 14 kts 319°
2026-04-29 12:15 -19.62986 -43.96998 2723 ft 15 kts 317°
2026-04-29 12:15 -19.62905 -43.97079 2723 ft 17 kts 317°
2026-04-29 12:15 -19.62822 -43.97158 2723 ft 18 kts 318°
2026-04-29 12:16 -19.62732 -43.97241 2723 ft 16 kts 320°
2026-04-29 12:16 -19.62649 -43.97314 2723 ft 18 kts 320°
2026-04-29 12:16 -19.62555 -43.97399 2723 ft 16 kts 319°
2026-04-29 12:16 -19.62480 -43.97469 2723 ft 13 kts 318°
2026-04-29 12:17 -19.62411 -43.97535 2723 ft 14 kts 318°
2026-04-29 12:17 -19.62337 -43.97605 2723 ft 11 kts 318°
2026-04-29 12:17 -19.62275 -43.97665 2723 ft 10 kts 316°
2026-04-29 12:17 -19.62253 -43.97726 2723 ft 9 kts 248°
2026-04-29 12:18 -19.62298 -43.97767 2723 ft 9 kts 204°
2026-04-29 12:18 -19.62366 -43.97786 2723 ft 10 kts 184°
2026-04-29 12:18 -19.62424 -43.97749 2723 ft 21 kts 139°
2026-04-29 12:18 -19.62767 -43.97436 2723 ft 109 kts 139°
2026-04-29 12:19 -19.63497 -43.96747 2801 ft 161 kts 137°
2026-04-29 12:19 -19.64389 -43.95877 3017 ft 199 kts 137°
2026-04-29 12:19 -19.65574 -43.94788 2941 ft 248 kts 140°
2026-04-29 12:19 -19.66836 -43.93675 4430 ft 234 kts 140°
2026-04-29 12:20 -19.68166 -43.92485 4948 ft 267 kts 143°
2026-04-29 12:20 -19.69844 -43.91774 5718 ft 266 kts 173°
2026-04-29 12:20 -19.71675 -43.92111 6629 ft 266 kts 208°
2026-04-29 12:20 -19.73031 -43.93334 7663 ft 257 kts 234°
2026-04-29 12:21 -19.74033 -43.94906 9019 ft 258 kts 240°
2026-04-29 12:21 -19.74972 -43.96547 10249 ft 264 kts 242°
2026-04-29 12:21 -19.75789 -43.98289 11423 ft 268 kts 252°
2026-04-29 12:21 -19.75877 -44.00248 12522 ft 272 kts 281°
2026-04-29 12:22 -19.74996 -44.02024 13531 ft 283 kts 310°
2026-04-29 12:22 -19.73336 -44.03276 13992 ft 308 kts 338°
2026-04-29 12:22 -19.71193 -44.03787 14487 ft 326 kts 353°
2026-04-29 12:22 -19.68912 -44.04054 15358 ft 331 kts 355°
2026-04-29 12:23 -19.66625 -44.04265 16354 ft 334 kts 354°
2026-04-29 12:23 -19.64308 -44.04438 17367 ft 334 kts 354°
2026-04-29 12:23 -19.62006 -44.04575 18438 ft 331 kts 354°
2026-04-29 12:23 -19.59731 -44.04704 19447 ft 329 kts 355°
2026-04-29 12:24 -19.57458 -44.04831 20319 ft 331 kts 355°
2026-04-29 12:24 -19.55133 -44.04925 21036 ft 336 kts 355°
2026-04-29 12:24 -19.52857 -44.05420 21752 ft 336 kts 338°
2026-04-29 12:24 -19.50753 -44.06516 22513 ft 338 kts 332°
2026-04-29 12:25 -19.48578 -44.07491 23162 ft 342 kts 340°
2026-04-29 12:25 -19.46316 -44.08275 23833 ft 345 kts 341°
2026-04-29 12:25 -19.41682 -44.09769 25060 ft 352 kts 341°
2026-04-29 12:26 -19.39362 -44.10620 25345 ft 363 kts 340°
2026-04-29 12:26 -19.36971 -44.11517 25406 ft 363 kts 340°
2026-04-29 12:26 -19.34600 -44.12387 26129 ft 358 kts 340°
2026-04-29 12:26 -19.32273 -44.13250 26877 ft 354 kts 340°
2026-04-29 12:27 -19.29942 -44.14032 27550 ft 352 kts 348°
2026-04-29 12:27 -19.27499 -44.14020 28064 ft 355 kts
2026-04-29 12:27 -19.25120 -44.13374 28708 ft 353 kts 15°
2026-04-29 12:27 -19.22817 -44.12595 29278 ft 352 kts 17°
2026-04-29 12:28 -19.21530 -44.12138 29630 ft 350 kts 17°
2026-04-29 12:28 -19.19347 -44.11346 30135 ft 351 kts 18°
2026-04-29 12:28 -19.16838 -44.10409 30686 ft 350 kts 18°
2026-04-29 12:28 -19.14646 -44.09555 31239 ft 347 kts 19°
2026-04-29 12:29 -19.12392 -44.08649 31730 ft 347 kts 20°
2026-04-29 12:29 -19.10109 -44.07729 31855 ft 357 kts 20°
2026-04-29 12:29 -19.07756 -44.06779 32001 ft 370 kts 20°
2026-04-29 12:29 -19.05316 -44.05779 32152 ft 383 kts 20°
2026-04-29 12:30 -19.02811 -44.04753 32339 ft 393 kts 20°
2026-04-29 12:30 -19.00266 -44.03711 32821 ft 391 kts 20°
2026-04-29 12:30 -18.97735 -44.02679 33252 ft 390 kts 20°
2026-04-29 12:30 -18.95225 -44.01646 33671 ft 389 kts 20°
2026-04-29 12:31 -18.92719 -44.00607 34068 ft 388 kts 20°
2026-04-29 12:31 -18.90211 -43.99589 34455 ft 387 kts 20°
2026-04-29 12:31 -18.87719 -43.98552 34823 ft 386 kts 20°
2026-04-29 12:31 -18.85207 -43.97532 35135 ft 387 kts 20°
2026-04-29 12:32 -18.82684 -43.96486 35262 ft 395 kts 20°
2026-04-29 12:32 -18.80096 -43.95431 35369 ft 404 kts 20°
2026-04-29 12:32 -18.77461 -43.94344 35455 ft 411 kts 20°
2026-04-29 12:33 -18.72616 -43.92358 35795 ft 415 kts 20°
2026-04-29 12:33 -18.69934 -43.91258 36134 ft 414 kts 20°
2026-04-29 12:33 -18.67257 -43.90160 36427 ft 414 kts 20°
2026-04-29 12:33 -18.64590 -43.89068 36766 ft 414 kts 20°
2026-04-29 12:34 -18.61927 -43.87982 37213 ft 412 kts 20°
2026-04-29 12:34 -18.59245 -43.86883 37606 ft 412 kts 20°
2026-04-29 12:34 -18.56572 -43.85790 37945 ft 413 kts 20°
2026-04-29 12:35 -18.51142 -43.83570 38090 ft 427 kts 20°
2026-04-29 12:35 -18.45552 -43.81265 38229 ft 440 kts 20°
2026-04-29 12:36 -18.39762 -43.78900 38474 ft 448 kts 20°
2026-04-29 12:36 -18.36877 -43.77732 38873 ft 445 kts 20°
2026-04-29 12:36 -18.34004 -43.76550 39273 ft 442 kts 20°
2026-04-29 12:36 -18.31161 -43.75398 39671 ft 439 kts 20°
2026-04-29 12:37 -18.28331 -43.74237 40070 ft 436 kts 20°
2026-04-29 12:37 -18.25510 -43.73091 40471 ft 432 kts 20°
2026-04-29 12:37 -18.22728 -43.71953 40871 ft 429 kts 20°
2026-04-29 12:37 -18.19966 -43.70827 41090 ft 430 kts 21°
2026-04-29 12:38 -18.17157 -43.69684 41150 ft 434 kts 21°
2026-04-29 12:38 -18.11497 -43.67396 41156 ft 445 kts 20°
2026-04-29 12:39 -18.05557 -43.65431 41158 ft 446 kts 15°
2026-04-29 12:39 -17.99590 -43.63607 41255 ft 450 kts 16°
2026-04-29 12:40 -17.93590 -43.61766 41258 ft 449 kts 16°
2026-04-29 12:40 -17.87607 -43.59931 41258 ft 450 kts 16°
2026-04-29 12:41 -17.81623 -43.58097 41258 ft 451 kts 16°
2026-04-29 12:41 -17.75593 -43.56257 41248 ft 451 kts 15°
2026-04-29 12:42 -17.69593 -43.54418 41247 ft 452 kts 15°
2026-04-29 12:42 -17.63553 -43.52569 41246 ft 453 kts 15°
2026-04-29 12:43 -17.57504 -43.50718 41247 ft 454 kts 15°
2026-04-29 12:43 -17.51468 -43.48853 41246 ft 453 kts 16°
2026-04-29 12:44 -17.45438 -43.46991 41240 ft 453 kts 16°
2026-04-29 12:44 -17.39404 -43.45128 41239 ft 453 kts 16°
2026-04-29 12:45 -17.33371 -43.43268 41239 ft 454 kts 16°
2026-04-29 12:45 -17.27330 -43.41408 41239 ft 454 kts 15°
2026-04-29 12:46 -17.21288 -43.39574 41240 ft 455 kts 15°
2026-04-29 12:46 -17.15217 -43.37728 41235 ft 454 kts 15°
2026-04-29 12:47 -17.09203 -43.35887 41236 ft 455 kts 15°
2026-04-29 12:47 -17.03107 -43.34034 41168 ft 456 kts 16°
2026-04-29 12:48 -16.96960 -43.32173 41137 ft 465 kts 16°
2026-04-29 12:48 -16.90738 -43.30283 41145 ft 465 kts 16°
2026-04-29 12:49 -16.85012 -43.28536 41147 ft 464 kts 16°
2026-04-29 12:49 -16.79393 -43.26844 41147 ft 467 kts 16°
2026-04-29 12:50 -16.73264 -43.24976 41147 ft 469 kts 16°
2026-04-29 12:50 -16.66970 -43.23079 41147 ft 468 kts 16°
2026-04-29 12:51 -16.60773 -43.21194 41135 ft 462 kts 15°
2026-04-29 12:51 -16.54617 -43.19335 41135 ft 465 kts 15°
2026-04-29 12:52 -16.48471 -43.17472 41136 ft 466 kts 16°
2026-04-29 12:52 -16.42474 -43.15672 41135 ft 467 kts 15°
2026-04-29 12:53 -16.35932 -43.13691 41131 ft 472 kts 15°
2026-04-29 12:53 -16.29848 -43.11856 41132 ft 476 kts 15°
2026-04-29 12:54 -16.24189 -43.10176 41133 ft 475 kts 15°
2026-04-29 12:54 -16.18161 -43.08346 41132 ft 476 kts 17°
2026-04-29 12:55 -16.11599 -43.06009 41132 ft 477 kts 18°
2026-04-29 12:55 -16.05322 -43.03747 41132 ft 480 kts 19°
2026-04-29 12:56 -15.99041 -43.01485 41132 ft 480 kts 19°
2026-04-29 12:56 -15.92746 -42.99222 41132 ft 481 kts 19°
2026-04-29 12:57 -15.86433 -42.96953 41131 ft 482 kts 19°
2026-04-29 12:57 -15.80119 -42.94686 41122 ft 480 kts 19°
2026-04-29 12:58 -15.73828 -42.92430 41121 ft 480 kts 19°
2026-04-29 12:58 -15.67517 -42.90192 41121 ft 481 kts 19°
2026-04-29 12:59 -15.61204 -42.87930 41121 ft 481 kts 19°
2026-04-29 12:59 -15.54886 -42.85691 41102 ft 481 kts 19°
2026-04-29 13:00 -15.48586 -42.83440 41094 ft 480 kts 19°
2026-04-29 13:00 -15.42283 -42.81189 41093 ft 481 kts 19°
2026-04-29 13:01 -15.35972 -42.78958 41094 ft 481 kts 19°
2026-04-29 13:01 -15.29654 -42.76704 41094 ft 482 kts 19°
2026-04-29 13:02 -15.23320 -42.74450 41126 ft 481 kts 19°
2026-04-29 13:02 -15.17015 -42.72223 41128 ft 482 kts 19°
2026-04-29 13:03 -15.10675 -42.69967 41128 ft 484 kts 19°
2026-04-29 13:03 -15.04292 -42.67697 41128 ft 486 kts 19°
2026-04-29 13:04 -14.97933 -42.65455 41116 ft 482 kts 19°
2026-04-29 13:04 -14.91633 -42.63219 41116 ft 478 kts 19°
2026-04-29 13:05 -14.85356 -42.60992 41115 ft 480 kts 19°
2026-04-29 13:05 -14.80387 -42.59245 41115 ft 481 kts 19°
2026-04-29 13:06 -14.72737 -42.56543 41123 ft 480 kts 19°
2026-04-29 13:06 -14.66411 -42.54321 41124 ft 479 kts 18°
2026-04-29 13:07 -14.60093 -42.52110 41124 ft 481 kts 18°
2026-04-29 13:07 -14.53775 -42.49901 41125 ft 480 kts 19°
2026-04-29 13:08 -14.47488 -42.47679 41125 ft 481 kts 19°
2026-04-29 13:08 -14.41152 -42.45504 41116 ft 480 kts 19°
2026-04-29 13:09 -14.34852 -42.43283 41115 ft 479 kts 19°
2026-04-29 13:09 -14.28541 -42.41061 41115 ft 482 kts 19°
2026-04-29 13:10 -14.22189 -42.38826 41115 ft 483 kts 19°
2026-04-29 13:10 -14.15857 -42.36600 41112 ft 481 kts 19°
2026-04-29 13:11 -14.09560 -42.34388 41111 ft 479 kts 19°
2026-04-29 13:11 -14.03255 -42.32175 41111 ft 481 kts 19°
2026-04-29 13:12 -13.96914 -42.29951 41111 ft 482 kts 19°
2026-04-29 13:12 -13.90585 -42.27732 41111 ft 484 kts 19°
2026-04-29 13:13 -13.85107 -42.25814 41113 ft 479 kts 19°
2026-04-29 13:13 -13.83007 -42.25079 41113 ft 479 kts 19°
2026-04-29 13:14 -13.79048 -42.23694 41113 ft 480 kts 19°
2026-04-29 13:14 -13.72729 -42.21484 41113 ft 481 kts 19°
2026-04-29 13:15 -13.66416 -42.19266 41113 ft 481 kts 19°
2026-04-29 13:15 -13.60108 -42.16997 41106 ft 479 kts 19°
2026-04-29 13:16 -13.53852 -42.14770 41106 ft 478 kts 19°
2026-04-29 13:16 -13.47972 -42.12681 41106 ft 482 kts 19°
2026-04-29 13:17 -13.41647 -42.10408 41106 ft 483 kts 19°
2026-04-29 13:17 -13.35324 -42.08146 41106 ft 483 kts 19°
2026-04-29 13:18 -13.29012 -42.05908 41108 ft 479 kts 19°
2026-04-29 13:18 -13.22708 -42.03668 41108 ft 482 kts 19°
2026-04-29 13:19 -13.16368 -42.01407 41108 ft 484 kts 19°
2026-04-29 13:19 -13.10015 -41.99142 41108 ft 485 kts 19°
2026-04-29 13:20 -13.03672 -41.96886 41105 ft 483 kts 19°
2026-04-29 13:20 -12.97355 -41.94642 41110 ft 480 kts 19°
2026-04-29 13:21 -12.91061 -41.92402 41110 ft 482 kts 19°
2026-04-29 13:21 -12.84740 -41.90156 41110 ft 482 kts 19°
2026-04-29 13:22 -12.78418 -41.87913 41105 ft 483 kts 19°
2026-04-29 13:22 -12.72117 -41.85678 41104 ft 478 kts 19°
2026-04-29 13:23 -12.65857 -41.83461 41104 ft 480 kts 19°
2026-04-29 13:23 -12.59546 -41.81228 41104 ft 479 kts 19°
2026-04-29 13:24 -12.53257 -41.79000 41104 ft 480 kts 19°
2026-04-29 13:24 -12.46991 -41.76780 41100 ft 478 kts 18°
2026-04-29 13:25 -12.40709 -41.74558 41100 ft 480 kts 18°
2026-04-29 13:25 -12.31221 -41.71207 41100 ft 483 kts 18°
2026-04-29 13:26 -12.24894 -41.68971 41101 ft 482 kts 19°
2026-04-29 13:26 -12.18613 -41.66752 41109 ft 476 kts 18°
2026-04-29 13:27 -12.12393 -41.64554 41110 ft 475 kts 18°
2026-04-29 13:27 -12.06112 -41.62334 41110 ft 479 kts 18°
2026-04-29 13:28 -11.99840 -41.60121 41107 ft 478 kts 18°
2026-04-29 13:28 -11.93619 -41.57924 41110 ft 472 kts 18°
2026-04-29 13:29 -11.87408 -41.55730 41110 ft 474 kts 18°
2026-04-29 13:29 -11.81487 -41.53636 41109 ft 474 kts 18°
2026-04-29 13:30 -11.74952 -41.51328 41110 ft 476 kts 18°
2026-04-29 13:30 -11.68702 -41.49116 41092 ft 476 kts 17°
2026-04-29 13:31 -11.62749 -41.47263 41089 ft 474 kts 16°
2026-04-29 13:31 -11.56524 -41.45350 41087 ft 476 kts 16°
2026-04-29 13:32 -11.50222 -41.43395 41087 ft 476 kts 16°
2026-04-29 13:32 -11.43898 -41.41428 41086 ft 477 kts 16°
2026-04-29 13:33 -11.37585 -41.39459 41080 ft 476 kts 16°
2026-04-29 13:33 -11.31276 -41.37495 41080 ft 476 kts 16°
2026-04-29 13:34 -11.24936 -41.35520 41080 ft 477 kts 16°
2026-04-29 13:34 -11.18642 -41.33453 41080 ft 477 kts 18°
2026-04-29 13:35 -11.12362 -41.31305 41100 ft 477 kts 18°
2026-04-29 13:35 -11.06094 -41.29142 41100 ft 477 kts 18°
2026-04-29 13:36 -10.99816 -41.26958 41100 ft 479 kts 18°
2026-04-29 13:36 -10.93496 -41.24798 41100 ft 479 kts 18°
2026-04-29 13:37 -10.87195 -41.22659 41093 ft 478 kts 19°
2026-04-29 13:37 -10.80911 -41.20524 41091 ft 477 kts 19°
2026-04-29 13:38 -10.74619 -41.18388 41091 ft 479 kts 19°
2026-04-29 13:38 -10.68318 -41.16249 41091 ft 480 kts 19°
2026-04-29 13:39 -10.61976 -41.14096 41091 ft 482 kts 19°
2026-04-29 13:39 -10.55665 -41.11944 41092 ft 477 kts 19°
2026-04-29 13:40 -10.49410 -41.09790 41093 ft 477 kts 19°
2026-04-29 13:40 -10.43128 -41.07630 41093 ft 478 kts 20°
2026-04-29 13:41 -10.36845 -41.05449 41093 ft 479 kts 19°
2026-04-29 13:41 -10.30544 -41.03313 41082 ft 478 kts 19°
2026-04-29 13:42 -10.24253 -41.01181 41082 ft 478 kts 19°
2026-04-29 13:42 -10.17952 -40.99045 41082 ft 479 kts 19°
2026-04-29 13:43 -10.11637 -40.96902 41082 ft 479 kts 19°
2026-04-29 13:43 -10.05802 -40.94905 41080 ft 479 kts 20°
2026-04-29 13:44 -9.99060 -40.92565 41074 ft 478 kts 19°
2026-04-29 13:44 -9.92760 -40.90433 41074 ft 480 kts 19°
2026-04-29 13:45 -9.86406 -40.88283 41074 ft 482 kts 19°
2026-04-29 13:45 -9.80058 -40.86135 41074 ft 482 kts 19°
2026-04-29 13:46 -9.73752 -40.84003 41048 ft 477 kts 19°
2026-04-29 13:46 -9.67474 -40.81881 41047 ft 478 kts 19°
2026-04-29 13:47 -9.61178 -40.79754 41047 ft 478 kts 19°
2026-04-29 13:47 -9.54870 -40.77624 41047 ft 479 kts 19°
2026-04-29 13:48 -9.48573 -40.75499 41046 ft 480 kts 20°
2026-04-29 13:48 -9.42257 -40.73347 41045 ft 479 kts 20°
2026-04-29 13:49 -9.35954 -40.71222 41045 ft 480 kts 20°
2026-04-29 13:49 -9.29605 -40.69082 41045 ft 481 kts 20°
2026-04-29 13:50 -9.23275 -40.66949 41045 ft 481 kts 20°
2026-04-29 13:50 -9.16963 -40.64823 41039 ft 479 kts 20°
2026-04-29 13:51 -9.10640 -40.62693 41039 ft 479 kts 20°
2026-04-29 13:51 -9.04309 -40.60562 41039 ft 480 kts 20°
2026-04-29 13:52 -8.97994 -40.58437 41040 ft 480 kts 20°
2026-04-29 13:52 -8.91676 -40.56310 41036 ft 477 kts 19°
2026-04-29 13:53 -8.85530 -40.54242 41036 ft 478 kts 19°
2026-04-29 13:53 -8.79359 -40.52167 41036 ft 479 kts 19°
2026-04-29 13:54 -8.73038 -40.50042 41036 ft 479 kts 19°
2026-04-29 13:54 -8.66724 -40.47912 41037 ft 479 kts 19°
2026-04-29 13:55 -8.60444 -40.45785 41037 ft 476 kts 19°
2026-04-29 13:55 -8.54154 -40.43673 41038 ft 479 kts 19°
2026-04-29 13:56 -8.47848 -40.41547 41037 ft 479 kts 19°
2026-04-29 13:56 -8.41539 -40.39419 41037 ft 478 kts 19°
2026-04-29 13:57 -8.35253 -40.37309 41038 ft 476 kts 19°
2026-04-29 13:57 -8.29003 -40.35196 41038 ft 476 kts 19°
2026-04-29 13:58 -8.22712 -40.33086 41038 ft 477 kts 19°
2026-04-29 13:58 -8.16417 -40.30975 41038 ft 477 kts 19°
2026-04-29 13:59 -8.10136 -40.28850 41042 ft 476 kts 19°
2026-04-29 13:59 -8.03887 -40.26758 41043 ft 474 kts 19°
2026-04-29 14:00 -7.97626 -40.24657 41043 ft 475 kts 20°
2026-04-29 14:00 -7.91356 -40.22541 41043 ft 476 kts 19°
2026-04-29 14:01 -7.85079 -40.20441 41043 ft 479 kts 19°
2026-04-29 14:01 -7.78788 -40.18334 41038 ft 474 kts 19°
2026-04-29 14:02 -7.72545 -40.16226 41037 ft 476 kts 19°
2026-04-29 14:02 -7.66278 -40.14113 41038 ft 477 kts 19°
2026-04-29 14:03 -7.60008 -40.11981 41037 ft 477 kts 19°
2026-04-29 14:03 -7.53766 -40.09834 41037 ft 474 kts 19°
2026-04-29 14:04 -7.47520 -40.07751 41036 ft 475 kts 19°
2026-04-29 14:04 -7.41564 -40.05760 41036 ft 476 kts 19°
2026-04-29 14:05 -7.34974 -40.03557 41036 ft 478 kts 19°
2026-04-29 14:05 -7.28676 -40.01451 41028 ft 479 kts 19°
2026-04-29 14:06 -7.22378 -39.99346 41026 ft 477 kts 19°
2026-04-29 14:06 -7.16076 -39.97241 41027 ft 478 kts 19°
2026-04-29 14:07 -7.10080 -39.95237 41026 ft 479 kts 19°
2026-04-29 14:07 -7.04915 -39.93511 41026 ft 479 kts 19°
2026-04-29 14:08 -6.98074 -39.91223 40999 ft 478 kts 19°
2026-04-29 14:08 -6.91800 -39.89098 40997 ft 478 kts 20°
2026-04-29 14:09 -6.85510 -39.86948 40997 ft 480 kts 20°
2026-04-29 14:09 -6.79188 -39.84784 40997 ft 480 kts 19°
2026-04-29 14:10 -6.72861 -39.82668 40997 ft 482 kts 19°
2026-04-29 14:10 -6.66552 -39.80557 41007 ft 478 kts 19°
2026-04-29 14:11 -6.60241 -39.78444 41008 ft 477 kts 19°
2026-04-29 14:11 -6.53953 -39.76338 41009 ft 479 kts 19°
2026-04-29 14:12 -6.47634 -39.74233 41007 ft 479 kts 19°
2026-04-29 14:12 -6.41655 -39.72266 41004 ft 475 kts 19°
2026-04-29 14:13 -6.35071 -39.70087 41005 ft 478 kts 19°
2026-04-29 14:13 -6.28734 -39.67995 41005 ft 479 kts 19°
2026-04-29 14:14 -6.22424 -39.65906 41004 ft 479 kts 19°
2026-04-29 14:14 -6.16128 -39.63824 41001 ft 475 kts 19°
2026-04-29 14:15 -6.09911 -39.61753 41001 ft 474 kts 19°
2026-04-29 14:15 -6.03624 -39.59642 41001 ft 476 kts 19°
2026-04-29 14:16 -5.97343 -39.57532 41001 ft 476 kts 19°
2026-04-29 14:16 -5.91079 -39.55426 41000 ft 475 kts 19°
2026-04-29 14:17 -5.84812 -39.53320 40999 ft 475 kts 19°
2026-04-29 14:17 -5.78556 -39.51218 40999 ft 476 kts 19°
2026-04-29 14:18 -5.72388 -39.49170 40896 ft 451 kts 19°
2026-04-29 14:18 -5.69655 -39.48260 40829 ft 437 kts 19°
2026-04-29 14:18 -5.66848 -39.47338 40538 ft 423 kts 19°
2026-04-29 14:19 -5.64075 -39.46405 39734 ft 423 kts 19°
2026-04-29 14:19 -5.61248 -39.45464 38627 ft 430 kts 19°
2026-04-29 14:19 -5.58406 -39.44527 37627 ft 433 kts 20°
2026-04-29 14:19 -5.55534 -39.43562 36738 ft 433 kts 20°
2026-04-29 14:20 -5.52704 -39.42628 36216 ft 430 kts 20°
2026-04-29 14:20 -5.49832 -39.41675 35840 ft 437 kts 20°
2026-04-29 14:20 -5.46957 -39.40710 35462 ft 442 kts 20°
2026-04-29 14:20 -5.44016 -39.39741 34957 ft 441 kts 20°
2026-04-29 14:21 -5.41293 -39.38836 34488 ft 441 kts 20°
2026-04-29 14:21 -5.38290 -39.37827 33976 ft 443 kts 19°
2026-04-29 14:21 -5.35463 -39.36901 33490 ft 443 kts 20°
2026-04-29 14:21 -5.32541 -39.35933 32989 ft 444 kts 21°
2026-04-29 14:22 -5.29613 -39.34948 32416 ft 445 kts 21°
2026-04-29 14:22 -5.26674 -39.33975 31841 ft 447 kts 20°
2026-04-29 14:22 -5.23742 -39.33006 31269 ft 447 kts 21°
2026-04-29 14:22 -5.20776 -39.32009 30689 ft 448 kts 21°
2026-04-29 14:23 -5.17834 -39.31045 30116 ft 448 kts 21°
2026-04-29 14:23 -5.14865 -39.30056 29538 ft 448 kts 22°
2026-04-29 14:23 -5.11915 -39.29066 28963 ft 449 kts 22°
2026-04-29 14:23 -5.08968 -39.28103 28389 ft 446 kts 22°
2026-04-29 14:24 -5.06092 -39.27143 27813 ft 430 kts 22°
2026-04-29 14:24 -5.03289 -39.26202 27237 ft 424 kts 22°
2026-04-29 14:24 -5.00518 -39.25298 26668 ft 424 kts 23°
2026-04-29 14:24 -4.97674 -39.24347 26083 ft 424 kts 24°
2026-04-29 14:25 -4.94908 -39.23423 25511 ft 421 kts 23°
2026-04-29 14:25 -4.92408 -39.22603 25015 ft 426 kts 22°
2026-04-29 14:25 -4.89212 -39.21534 24466 ft 450 kts 22°
2026-04-29 14:25 -4.86248 -39.20554 23966 ft 447 kts 22°
2026-04-29 14:26 -4.83329 -39.19588 23464 ft 438 kts 22°
2026-04-29 14:26 -4.80472 -39.18647 22965 ft 432 kts 22°
2026-04-29 14:26 -4.77626 -39.17710 22461 ft 427 kts 22°
2026-04-29 14:26 -4.74836 -39.16793 21961 ft 421 kts 22°
2026-04-29 14:27 -4.72062 -39.15882 21458 ft 416 kts 22°
2026-04-29 14:27 -4.69333 -39.14987 20958 ft 411 kts 22°
2026-04-29 14:27 -4.66637 -39.14103 20457 ft 407 kts 21°
2026-04-29 14:28 -4.61343 -39.12378 19459 ft 398 kts 21°
2026-04-29 14:28 -4.58729 -39.11518 18957 ft 394 kts 21°
2026-04-29 14:28 -4.56148 -39.10647 18454 ft 389 kts 21°
2026-04-29 14:28 -4.53631 -39.09807 17952 ft 377 kts 21°
2026-04-29 14:29 -4.51174 -39.08995 17451 ft 368 kts 21°
2026-04-29 14:29 -4.48813 -39.08218 17115 ft 354 kts 21°
2026-04-29 14:29 -4.46516 -39.07465 16981 ft 336 kts 21°
2026-04-29 14:29 -4.44367 -39.06758 16976 ft 318 kts 21°
2026-04-29 14:30 -4.42273 -39.06061 16981 ft 318 kts 21°
2026-04-29 14:30 -4.40174 -39.05314 16979 ft 319 kts 26°
2026-04-29 14:30 -4.38190 -39.04352 16981 ft 317 kts 31°
2026-04-29 14:30 -4.36268 -39.03287 16952 ft 316 kts 33°
2026-04-29 14:31 -4.34346 -39.02195 16285 ft 322 kts 33°
2026-04-29 14:31 -4.32384 -39.01082 15538 ft 327 kts 32°
2026-04-29 14:31 -4.30422 -38.99974 15108 ft 321 kts 32°
2026-04-29 14:31 -4.28470 -38.98881 14416 ft 325 kts 31°
2026-04-29 14:32 -4.26490 -38.97791 13635 ft 332 kts 31°
2026-04-29 14:32 -4.24437 -38.96656 12828 ft 336 kts 31°
2026-04-29 14:32 -4.22383 -38.95518 12027 ft 339 kts 31°
2026-04-29 14:32 -4.20319 -38.94373 11228 ft 341 kts 31°
2026-04-29 14:33 -4.18242 -38.93219 10426 ft 341 kts 31°
2026-04-29 14:33 -4.16175 -38.92074 9628 ft 341 kts 31°
2026-04-29 14:33 -4.14101 -38.90926 8827 ft 341 kts 31°
2026-04-29 14:33 -4.12062 -38.89821 8042 ft 340 kts 30°
2026-04-29 14:34 -4.09901 -38.88845 7489 ft 333 kts 25°
2026-04-29 14:34 -4.07764 -38.88061 7122 ft 321 kts 22°
2026-04-29 14:34 -4.06390 -38.87595 7147 ft 305 kts 21°
2026-04-29 14:34 -4.04872 -38.87084 6968 ft 296 kts 21°
2026-04-29 14:35 -4.03268 -38.86545 6646 ft 293 kts 21°
2026-04-29 14:35 -4.01414 -38.85893 6879 ft 275 kts 25°
2026-04-29 14:35 -3.99750 -38.85057 6931 ft 262 kts 33°
2026-04-29 14:35 -3.98238 -38.84117 6818 ft 250 kts 36°
2026-04-29 14:36 -3.96809 -38.83175 6568 ft 244 kts 37°
2026-04-29 14:36 -3.95417 -38.82233 6298 ft 239 kts 38°
2026-04-29 14:36 -3.94070 -38.81288 6022 ft 235 kts 39°
2026-04-29 14:36 -3.92755 -38.80363 5773 ft 228 kts 39°
2026-04-29 14:37 -3.92201 -38.79973 5646 ft 226 kts 39°
2026-04-29 14:37 -3.91147 -38.79230 5432 ft 221 kts 39°
2026-04-29 14:37 -3.89906 -38.78356 5183 ft 220 kts 39°
2026-04-29 14:38 -3.88636 -38.77459 4928 ft 220 kts 39°
2026-04-29 14:38 -3.87404 -38.76588 4680 ft 219 kts 39°
2026-04-29 14:38 -3.86176 -38.75717 4430 ft 215 kts 39°
2026-04-29 14:38 -3.84963 -38.74863 4184 ft 205 kts 39°
2026-04-29 14:39 -3.83857 -38.74088 4152 ft 184 kts 40°
2026-04-29 14:39 -3.82848 -38.73387 4212 ft 167 kts 38°
2026-04-29 14:39 -3.81817 -38.72893 4223 ft 167 kts 26°
2026-04-29 14:39 -3.80685 -38.72536 4015 ft 173 kts 21°
2026-04-29 14:40 -3.79553 -38.72231 3631 ft 165 kts 20°
2026-04-29 14:40 -3.78436 -38.71932 3083 ft 166 kts 21°
2026-04-29 14:40 -3.77333 -38.71635 2524 ft 167 kts 20°
2026-04-29 14:40 -3.76206 -38.71334 1967 ft 167 kts 19°
2026-04-29 14:41 -3.75126 -38.71052 1698 ft 151 kts 19°
2026-04-29 14:41 -3.74197 -38.70753 1618 ft 134 kts 27°
2026-04-29 14:41 -3.73541 -38.70167 1613 ft 124 kts 60°
2026-04-29 14:41 -3.73388 -38.69463 1714 ft 120 kts 89°
2026-04-29 14:42 -3.73481 -38.68646 1740 ft 125 kts 102°
2026-04-29 14:42 -3.73697 -38.67758 1718 ft 126 kts 108°
2026-04-29 14:42 -3.73906 -38.67037 1671 ft 121 kts 108°
2026-04-29 14:42 -3.74081 -38.66393 1695 ft 118 kts 108°
2026-04-29 14:43 -3.74174 -38.66041 1695 ft 118 kts 107°
2026-04-29 14:43 -3.74381 -38.65249 1703 ft 119 kts 107°
2026-04-29 14:43 -3.74594 -38.64456 1701 ft 118 kts 107°
2026-04-29 14:43 -3.74802 -38.63659 1698 ft 118 kts 107°
2026-04-29 14:44 -3.75006 -38.62874 1704 ft 119 kts 107°
2026-04-29 14:44 -3.75215 -38.62076 1647 ft 119 kts 107°
2026-04-29 14:44 -3.75429 -38.61289 1491 ft 119 kts 108°
2026-04-29 14:44 -3.75653 -38.60486 1327 ft 118 kts 108°
2026-04-29 14:45 -3.75875 -38.59689 1171 ft 120 kts 108°
2026-04-29 14:45 -3.76100 -38.58886 1011 ft 119 kts 107°
2026-04-29 14:45 -3.76319 -38.58101 856 ft 120 kts 107°
2026-04-29 14:45 -3.76542 -38.57302 697 ft 120 kts 107°
2026-04-29 14:46 -3.76767 -38.56488 537 ft 120 kts 107°
2026-04-29 14:46 -3.76983 -38.55677 377 ft 121 kts 106°
2026-04-29 14:46 -3.77201 -38.54854 215 ft 120 kts 106°
2026-04-29 14:46 -3.77422 -38.54053 105 ft 116 kts 107°
2026-04-29 14:47 -3.77605 -38.53392 90 ft 70 kts 103°
2026-04-29 14:47 -3.77688 -38.53088 90 ft 34 kts 106°
2026-04-29 14:47 -3.77743 -38.52885 90 ft 23 kts 103°
2026-04-29 14:47 -3.77763 -38.52800 90 ft 16 kts 103°
2026-04-29 14:48 -3.77803 -38.52737 90 ft 5 kts 187°
2026-04-29 14:48 -3.77817 -38.52749 90 ft 1 kts 239°
2026-04-29 14:48 -3.77820 -38.52755 90 ft 1 kts 239°
2026-04-29 14:48 -3.77822 -38.52758 90 ft 2 kts 239°
2026-04-29 14:49 -3.77836 -38.52782 90 ft 6 kts 239°
2026-04-29 14:49 -3.77849 -38.52816 90 ft 6 kts 270°
2026-04-29 14:49 -3.77837 -38.52868 90 ft 10 kts 285°
2026-04-29 14:49 -3.77822 -38.52925 90 ft 9 kts 284°
2026-04-29 14:50 -3.77804 -38.52992 90 ft 10 kts 285°
2026-04-29 14:50 -3.77786 -38.53061 90 ft 9 kts 285°
2026-04-29 14:50 -3.77767 -38.53130 90 ft 10 kts 285°
2026-04-29 14:50 -3.77748 -38.53201 90 ft 11 kts 285°
2026-04-29 14:51 -3.77727 -38.53279 90 ft 11 kts 285°
2026-04-29 14:51 -3.77708 -38.53349 90 ft 10 kts 285°
2026-04-29 14:51 -3.77690 -38.53416 90 ft 11 kts 285°
2026-04-29 14:51 -3.77670 -38.53493 90 ft 12 kts 285°
2026-04-29 14:52 -3.77648 -38.53572 90 ft 10 kts 285°
2026-04-29 14:52 -3.77632 -38.53631 90 ft 8 kts 285°
2026-04-29 14:52 -3.77620 -38.53677 90 ft 7 kts 285°
2026-04-29 14:52 -3.77605 -38.53733 90 ft 9 kts 285°
2026-04-29 14:53 -3.77590 -38.53789 90 ft 8 kts 285°
2026-04-29 14:53 -3.77582 -38.53832 90 ft 6 kts 262°
2026-04-29 14:53 -3.77609 -38.53876 90 ft 7 kts 234°
2026-04-29 14:53 -3.77623 -38.53921 90 ft 7 kts 277°
2026-04-29 14:54 -3.77610 -38.53971 90 ft 8 kts 285°
2026-04-29 14:54 -3.77613 -38.54016 90 ft 5 kts 216°
2026-04-29 14:54 -3.77645 -38.54022 90 ft 4 kts 194°
2026-04-29 14:54 -3.77678 -38.54031 90 ft 3 kts 194°
2026-04-29 14:55 -3.77686 -38.54033 90 ft 0 kts 194°
2026-04-29 14:55 -3.77691 -38.54035 90 ft 1 kts 194°